Find Starlink 33987

NORAD ID: 63873 Int'l Des: 2025-094 Owner: SPXS Country: US Constellation: starlink operational
LEOCIRCULAR

Aktuelle Ansicht

3D-Globus wird geladen...

Über Starlink 33987

Beschreibung wird geladen...

Nächste Überflüge

Passes for default location (London). Set your location on the main map for personalized predictions.

Höhenverlauf

Loading altitude history...

Zweizeiliger Elementsatz

1 63873U 25094K 26148.99630007 .00003420 00000-0 29425-3 0 9996
2 63873 70.0037 31.9279 0002567 267.8481 92.2384 14.98330384 59233
Epoch: 28. Mai 2026 • Age: 24 hours

Aktueller Status

Höhe 585.2 km
Geschwindigkeit 7.57 km/s
Subsatellitenpunkt 69.30°N, 149.65°W
Startdatum 10. Mai 2025
Alter 1 years
Typ internet

Technische Details

Klassifizierung Payload
Masse 575.00 kg
Trockenmasse 530.00 kg
Gesamtmasse 575.00 kg
Länge 0.30 m
Durchmesser 4.10 m
Spannweite 29.00 m
Form Box + pan
Hersteller SPXS
Bus-Typ Starlink V2MO
Phasenstatus In Orbit
Besitzer/Staat SPXS/US

Most Searched